When you browse on this site, cookies collect data to enhance your experience and personalize the content and advertising you see.
Visit our Privacy Policy to learn more. By continuing to use the site, you agree to this use of cookies and data.
  • In Portugal
  • List of Countries
  • For 7 days
  • Water Temperature
  • Weather Map
  • Weather Widgets
  • user-avatar
    Login

    Hourly Weather Brisbane

    Today, 22 September, Sunday

    Time Temperature Precipitation Wind Pressure Humidity
    00:00 +19°C° 0.1 mm 1 mps 766 mmHg 91%
    01:00 +19°C° 0.1 mm 1 mps 766 mmHg 92%
    02:00 +19°C° 0.1 mm 1 mps 766 mmHg 92%
    03:00 +19°C° 0.1 mm 1 mps 767 mmHg 92%
    04:00 +19°C° 0 mm 1 mps 767 mmHg 93%
    05:00 +19°C° 0.1 mm 1 mps 767 mmHg 91%
    06:00 +20°C° 0.1 mm 1 mps 767 mmHg 88%
    07:00 +20°C° 0.1 mm 1 mps 767 mmHg 85%
    08:00 +22°C° 0 mm 1 mps 767 mmHg 75%
    09:00 +24°C° 0 mm 2 mps 767 mmHg 66%
    10:00 +26°C° 0 mm 2 mps 767 mmHg 56%
    11:00 +27°C° 0 mm 2 mps 767 mmHg 51%
    12:00 +28°C° 0 mm 3 mps 766 mmHg 46%
    13:00 +30°C° 0 mm 3 mps 765 mmHg 41%
    14:00 +29°C° 0 mm 3 mps 765 mmHg 45%
    15:00 +28°C° 0 mm 4 mps 765 mmHg 48%
    16:00 +27°C° 0 mm 4 mps 765 mmHg 51%
    17:00 +25°C° 0 mm 4 mps 765 mmHg 57%
    18:00 +22°C° 0 mm 4 mps 765 mmHg 63%
    19:00 +21°C° 0 mm 4 mps 765 mmHg 69%
    20:00 +20°C° 0 mm 3 mps 766 mmHg 73%
    21:00 +19°C° 0 mm 3 mps 766 mmHg 77%
    22:00 +18°C° 0 mm 2 mps 766 mmHg 81%
    23:00 +18°C° 0 mm 2 mps 766 mmHg 81%

    Tomorrow, 23 September, Monday

    Time Temperature Precipitation Wind Pressure Humidity
    00:00 +18°C° 0 mm 2 mps 766 mmHg 80%
    01:00 +17°C° 0 mm 2 mps 766 mmHg 80%
    02:00 +18°C° 0 mm 1 mps 766 mmHg 80%
    03:00 +18°C° 0 mm 1 mps 766 mmHg 81%
    04:00 +18°C° 0 mm 1 mps 766 mmHg 81%
    05:00 +17°C° 0 mm 2 mps 766 mmHg 78%
    06:00 +18°C° 0 mm 2 mps 766 mmHg 75%
    07:00 +18°C° 0 mm 2 mps 766 mmHg 71%
    08:00 +21°C° 0 mm 2 mps 766 mmHg 62%
    09:00 +25°C° 0 mm 2 mps 766 mmHg 52%
    10:00 +28°C° 0 mm 2 mps 765 mmHg 42%
    11:00 +29°C° 0 mm 3 mps 765 mmHg 38%
    12:00 +31°C° 0 mm 3 mps 764 mmHg 35%
    13:00 +33°C° 0 mm 3 mps 763 mmHg 31%
    14:00 +31°C° 0 mm 3 mps 762 mmHg 39%
    15:00 +29°C° 0 mm 4 mps 762 mmHg 46%
    16:00 +27°C° 0 mm 4 mps 762 mmHg 54%
    17:00 +26°C° 0 mm 4 mps 762 mmHg 60%
    18:00 +25°C° 0 mm 3 mps 763 mmHg 66%
    19:00 +23°C° 0 mm 2 mps 763 mmHg 72%
    20:00 +23°C° 0 mm 2 mps 764 mmHg 69%
    21:00 +21°C° 0 mm 2 mps 764 mmHg 66%
    22:00 +20°C° 0 mm 2 mps 765 mmHg 64%
    23:00 +19°C° 0 mm 2 mps 765 mmHg 68%

    Day after tomorrow, 24 September, Tuesday

    Time Temperature Precipitation Wind Pressure Humidity
    00:00 +19°C° 0 mm 2 mps 765 mmHg 72%
    01:00 +18°C° 0 mm 3 mps 765 mmHg 76%
    02:00 +17°C° 0 mm 3 mps 765 mmHg 78%
    03:00 +17°C° 0 mm 2 mps 765 mmHg 81%
    04:00 +16°C° 0 mm 2 mps 765 mmHg 84%
    05:00 +17°C° 0 mm 2 mps 766 mmHg 80%
    06:00 +18°C° 0 mm 2 mps 766 mmHg 77%
    07:00 +18°C° 0 mm 2 mps 766 mmHg 73%
    08:00 +20°C° 0 mm 3 mps 766 mmHg 64%
    09:00 +22°C° 0 mm 3 mps 766 mmHg 55%
    10:00 +23°C° 0 mm 4 mps 767 mmHg 46%
    11:00 +23°C° 0 mm 4 mps 766 mmHg 45%
    12:00 +25°C° 0 mm 4 mps 766 mmHg 44%
    13:00 +25°C° 0 mm 4 mps 765 mmHg 43%
    14:00 +23°C° 0 mm 4 mps 765 mmHg 46%
    15:00 +23°C° 0 mm 4 mps 765 mmHg 49%
    16:00 +22°C° 0 mm 4 mps 764 mmHg 52%
    17:00 +21°C° 0 mm 4 mps 765 mmHg 57%
    18:00 +19°C° 0 mm 3 mps 766 mmHg 62%
    19:00 +18°C° 0 mm 3 mps 766 mmHg 67%
    20:00 +18°C° 0 mm 2 mps 767 mmHg 69%
    21:00 +18°C° 0 mm 2 mps 767 mmHg 71%
    22:00 +19°C° 0 mm 1 mps 767 mmHg 73%
    23:00 +18°C° 0 mm 1 mps 767 mmHg 74%

    25 September, Wednesday

    Time Temperature Precipitation Wind Pressure Humidity
    00:00 +18°C° 0 mm 1 mps 767 mmHg 75%
    01:00 +18°C° 0 mm 1 mps 767 mmHg 76%
    02:00 +18°C° 0 mm 1 mps 767 mmHg 76%
    03:00 +18°C° 0 mm 1 mps 767 mmHg 75%
    04:00 +18°C° 0 mm 1 mps 766 mmHg 75%
    05:00 +19°C° 0 mm 1 mps 767 mmHg 73%
    06:00 +19°C° 0 mm 1 mps 767 mmHg 71%
    07:00 +20°C° 0 mm 1 mps 768 mmHg 68%
    08:00 +21°C° 0 mm 1 mps 768 mmHg 61%
    09:00 +23°C° 0 mm 2 mps 768 mmHg 54%
    10:00 +25°C° 0 mm 2 mps 768 mmHg 46%
    11:00 +25°C° 0 mm 2 mps 767 mmHg 45%
    12:00 +25°C° 0 mm 3 mps 766 mmHg 44%
    13:00 +26°C° 0 mm 3 mps 766 mmHg 44%
    14:00 +25°C° 0 mm 4 mps 765 mmHg 46%
    15:00 +25°C° 0 mm 4 mps 765 mmHg 48%
    16:00 +23°C° 0 mm 4 mps 765 mmHg 50%
    17:00 +22°C° 0 mm 4 mps 765 mmHg 57%
    18:00 +20°C° 0 mm 4 mps 766 mmHg 63%
    19:00 +19°C° 0 mm 3 mps 766 mmHg 70%
    20:00 +18°C° 0 mm 3 mps 767 mmHg 73%
    21:00 +18°C° 0 mm 2 mps 767 mmHg 76%
    22:00 +17°C° 0 mm 2 mps 767 mmHg 79%
    23:00 +18°C° 0 mm 1 mps 767 mmHg 80%

    26 September, Thursday

    Time Temperature Precipitation Wind Pressure Humidity
    00:00 +18°C° 0 mm 1 mps 767 mmHg 81%
    01:00 +18°C° 0 mm 1 mps 767 mmHg 81%
    02:00 +18°C° 0 mm 1 mps 767 mmHg 80%
    03:00 +19°C° 0 mm 1 mps 767 mmHg 78%
    04:00 +19°C° 0 mm 1 mps 767 mmHg 77%
    05:00 +19°C° 0 mm 1 mps 767 mmHg 75%
    06:00 +20°C° 0 mm 1 mps 768 mmHg 73%
    07:00 +20°C° 0 mm 1 mps 768 mmHg 72%
    08:00 +21°C° 0 mm 1 mps 768 mmHg 68%
    09:00 +21°C° 0 mm 1 mps 768 mmHg 64%
    10:00 +22°C° 0 mm 1 mps 768 mmHg 60%
    11:00 +23°C° 0 mm 2 mps 767 mmHg 56%
    12:00 +24°C° 0 mm 2 mps 766 mmHg 51%
    13:00 +25°C° 0 mm 2 mps 766 mmHg 47%
    14:00 +25°C° 0.1 mm 3 mps 765 mmHg 50%
    15:00 +24°C° 0.1 mm 3 mps 765 mmHg 53%
    16:00 +22°C° 0.1 mm 3 mps 764 mmHg 55%
    17:00 +21°C° 0 mm 3 mps 765 mmHg 59%
    18:00 +20°C° 0 mm 3 mps 765 mmHg 64%
    19:00 +19°C° 0 mm 3 mps 765 mmHg 68%
    20:00 +19°C° 0 mm 3 mps 765 mmHg 72%
    21:00 +18°C° 0 mm 2 mps 766 mmHg 75%
    22:00 +18°C° 0 mm 2 mps 766 mmHg 79%
    23:00 +17°C° 0 mm 2 mps 766 mmHg 80%

    27 September, Friday

    Time Temperature Precipitation Wind Pressure Humidity
    00:00 +17°C° 0 mm 2 mps 765 mmHg 82%
    01:00 +17°C° 0 mm 2 mps 765 mmHg 83%
    02:00 +16°C° 0 mm 1 mps 765 mmHg 84%
    03:00 +16°C° 0 mm 1 mps 765 mmHg 84%
    04:00 +16°C° 0 mm 1 mps 765 mmHg 85%
    05:00 +16°C° 0 mm 1 mps 765 mmHg 82%
    06:00 +18°C° 0 mm 1 mps 765 mmHg 78%
    07:00 +19°C° 0 mm 1 mps 766 mmHg 75%
    08:00 +22°C° 0 mm 1 mps 765 mmHg 65%
    09:00 +24°C° 0 mm 1 mps 765 mmHg 55%
    10:00 +27°C° 0 mm 1 mps 765 mmHg 45%
    11:00 +27°C° 0 mm 2 mps 764 mmHg 43%
    12:00 +28°C° 0 mm 2 mps 763 mmHg 41%
    13:00 +28°C° 0 mm 3 mps 762 mmHg 40%
    14:00 +28°C° 0 mm 3 mps 762 mmHg 41%
    15:00 +27°C° 0 mm 4 mps 762 mmHg 43%
    16:00 +27°C° 0 mm 4 mps 761 mmHg 44%
    17:00 +25°C° 0 mm 4 mps 762 mmHg 53%
    18:00 +22°C° 0 mm 4 mps 762 mmHg 61%
    19:00 +20°C° 0 mm 4 mps 763 mmHg 70%
    20:00 +20°C° 0 mm 3 mps 763 mmHg 73%
    21:00 +19°C° 0 mm 3 mps 764 mmHg 76%
    22:00 +18°C° 0 mm 3 mps 764 mmHg 79%
    23:00 +18°C° 0 mm 2 mps 764 mmHg 79%
    Show more